Weather History for Casement, Ireland

Change the Weather History Date:

Saturday, April 5, 2014

  Actual Average (EIDW) Record (EIDW)
Temperature  
Mean Temperature 55 °F -  
Max Temperature 61 °F 53 °F 64 °F (2011)
Min Temperature 49 °F 39 °F 26 °F (2006)
Degree Days  
Heating Degree Days 10    
Growing Degree Days 5 (Base 50)    
Moisture  
Dew Point 50 °F    
Average Humidity 84    
Maximum Humidity 94    
Minimum Humidity 74    
Precipitation  
Precipitation 0.01 in - - ()
Sea Level Pressure  
Sea Level Pressure 29.65 in    
Wind  
Wind Speed 12 mph ()    
Max Wind Speed 21 mph    
Max Gust Speed -    
Visibility 9.3 miles    
Events Rain    
Averages and records for this station are not official NWS values.
T = Trace of Precipitation, MM = Missing Value Source: Averaged Metar Reports

Daily Weather History Graph

Daily Weather History Graph

Search for Another Location

Airport:

Trip Planner

Search our weather history database for the weather conditions in past years. The results will help you decide how hot, cold, wet, or windy it might be!

Date:

Astronomy

Apr. 05, 2014 Rise Set
Actual Time 6:50 AM IST 8:07 PM IST
Civil Twilight 6:14 AM IST 8:43 PM IST
Nautical Twilight 5:30 AM IST 9:27 PM IST
Astronomical Twilight 4:42 AM IST 10:16 PM IST
Moon 10:15 AM IST (4/5) 1:36 AM IST (4/5)
Length of Visible Light 14h 29m
Length of Day
13h 17m
Waxing Crescent, 32% of the Moon is Illuminated
Apr 5
Waxing Crescent
Apr 7
First Quarter
Apr 15
Full
Apr 22
Last Quarter
Apr 29
New

Hourly Weather History & Observations

Time (IST) Temp. Dew Point Humidity Pressure Visibility Wind Dir Wind Speed Gust Speed Precip Events Conditions
12:00 AM 50 °F 44 °F 74% 29.70 in 19 mi ESE 6.7 mph - -   Mostly Cloudy
12:00 AM 50.0 °F 44.6 °F 82% 29.68 in 6.2 mi East 3.5 mph - N/A   Mostly Cloudy
1:00 AM 51 °F 46 °F 78% 29.68 in 16 mi South 13.4 mph - -   Partly Cloudy
1:00 AM 51.8 °F 46.4 °F 82% 29.65 in 6.2 mi South 10.4 mph - N/A   Mostly Cloudy
2:00 AM 52 °F 47 °F 77% 29.68 in 16 mi South 13.4 mph - -   Mostly Cloudy
2:00 AM 51.8 °F 46.4 °F 82% 29.65 in 6.2 mi SSW 11.5 mph - N/A   Mostly Cloudy
3:00 AM 51 °F 48 °F 85% 29.67 in 19 mi SSW 13.4 mph - -   Partly Cloudy
3:00 AM 50.0 °F 48.2 °F 94% 29.65 in 6.2 mi South 12.7 mph - N/A   Mostly Cloudy
4:00 AM 51 °F 48 °F 86% 29.66 in 19 mi SSW 13.4 mph - -   Scattered Clouds
4:00 AM 51.8 °F 48.2 °F 88% 29.65 in 6.2 mi SSW 12.7 mph - N/A   Mostly Cloudy
5:00 AM 52 °F 49 °F 85% 29.65 in 16 mi SSW 15.7 mph - -   Scattered Clouds
5:00 AM 51.8 °F 48.2 °F 88% 29.62 in 6.2 mi SSW 15.0 mph - N/A   Mostly Cloudy
6:00 AM 52 °F 49 °F 88% 29.65 in 11 mi SSW 13.4 mph - - Rain Light Rain
6:00 AM 51.8 °F 50.0 °F 94% 29.62 in 6.2 mi SSW 11.5 mph - N/A Rain Light Rain
7:00 AM 53 °F 50 °F 85% 29.65 in 12 mi SSW 11.2 mph - - Rain Light Rain
7:00 AM 53.6 °F 50.0 °F 88% 29.62 in 6.2 mi SSW 12.7 mph - N/A   Mostly Cloudy
8:00 AM 53 °F 50 °F 87% 29.65 in 19 mi SSW 11.2 mph - - Rain Light Rain
8:00 AM 53.6 °F 50.0 °F 88% 29.65 in 6.2 mi SSW 12.7 mph - N/A   Mostly Cloudy
9:00 AM 52 °F 50 °F 90% 29.67 in 2 mi SSW 13.4 mph - - Rain Light Rain
9:00 AM 51.8 °F 50.0 °F 94% 29.65 in 6.2 mi SSW 11.5 mph - N/A   Mostly Cloudy
10:00 AM 54 °F 52 °F 89% 29.67 in 31 mi SSW 11.2 mph - -   Partly Cloudy
10:00 AM 55.4 °F 51.8 °F 88% 29.65 in 6.2 mi SSW 11.5 mph - N/A   Mostly Cloudy
11:00 AM 56 °F 52 °F 83% 29.68 in 31 mi SSW 15.7 mph - -   Partly Cloudy
11:00 AM 55.4 °F 51.8 °F 88% 29.65 in 6.2 mi SSW 13.8 mph - N/A   Mostly Cloudy
12:00 PM 55 °F 52 °F 85% 29.68 in 25 mi SSW 13.4 mph - - Rain Light Rain
12:00 PM 55.4 °F 51.8 °F 88% 29.68 in 6.2 mi SSW 11.5 mph - N/A Rain Light Rain
1:00 PM 59 °F 53 °F 76% 29.68 in 25 mi SSW 15.7 mph - - Rain Light Rain
1:00 PM 59.0 °F 53.6 °F 82% 29.65 in 6.2 mi SSW 17.3 mph - N/A   Mostly Cloudy
2:00 PM 60 °F 54 °F 74% 29.66 in 31 mi SSW 17.9 mph - -   Partly Cloudy
2:00 PM 59.0 °F 53.6 °F 82% 29.65 in 6.2 mi SSW 17.3 mph - N/A   Mostly Cloudy
3:00 PM 61 °F 55 °F 75% 29.65 in 31 mi SSW 17.9 mph - -   Scattered Clouds
4:00 PM 60 °F 54 °F 76% 29.65 in 31 mi SSW 17.9 mph - -   Partly Cloudy
4:00 PM 60.8 °F 53.6 °F 77% 29.65 in 6.2 mi South 18.4 mph - N/A   Mostly Cloudy
5:00 PM 58 °F 53 °F 78% 29.65 in 31 mi SSW 17.9 mph - -   Mostly Cloudy
5:00 PM 59.0 °F 53.6 °F 82% 29.62 in 6.2 mi SSW 19.6 mph - N/A   Mostly Cloudy
6:00 PM 57 °F 52 °F 79% 29.64 in 31 mi SSW 15.7 mph - -   Mostly Cloudy
6:00 PM 57.2 °F 51.8 °F 82% 29.62 in 6.2 mi SSW 13.8 mph - N/A   Mostly Cloudy
7:00 PM 56 °F 51 °F 78% 29.63 in 31 mi SSW 17.9 mph - -   Partly Cloudy
7:00 PM 55.4 °F 51.8 °F 88% 29.62 in 6.2 mi SSW 16.1 mph - N/A   Mostly Cloudy
8:00 PM 55 °F 51 °F 82% 29.63 in 25 mi SSW 13.4 mph - - Rain Light Rain
8:00 PM 55.4 °F 51.8 °F 88% 29.62 in 6.2 mi SSW 16.1 mph - N/A Rain Light Rain
9:00 PM 55 °F 52 °F 84% 29.62 in 12 mi SSW 20.1 mph - - Rain Light Rain
9:00 PM 55.4 °F 51.8 °F 88% 29.59 in 6.2 mi South 19.6 mph - N/A Rain Light Rain
10:00 PM 54 °F 51 °F 84% 29.60 in 12 mi SSW 17.9 mph - - Rain Light Rain
10:00 PM 53.6 °F 50.0 °F 88% 29.59 in 6.2 mi SSW 20.7 mph - N/A Rain Light Rain
11:00 PM 53 °F 50 °F 87% 29.61 in 19 mi SSW 15.7 mph - - Rain Light Rain
11:00 PM 53.6 °F 50.0 °F 88% 29.59 in 6.2 mi SSW 13.8 mph - N/A   Scattered Clouds